TELSTAR 11N

Last updated on Sun Nov 16 2025 00:03:41 GMT+0000 (Coordinated Universal Time)

1 34111U 09009A 25319.23066057 .00000000 00000+0 00000+0 0 9995 2 34111 0.0173 290.4676 0002131 294.9879 234.6012 1.00268443 44107
UTC large
Height (km)
Speed (km/s)
/
Latitude / Longitude
Inclination (degrees)
Orbital Period (minutes)
Azimuth
Elevation
Range (km)
Doppler Factor

Next 0 passes for location: London (51.5072 / 0.1276)

Sorry there are no passes over London.